Temp
-4 -3 -3 -3 -3 -4 -4 -4 -5 -5 -4 -5 -4 -4 -3 -2 -2 -2 -1 -1 -1 -2 -1 -0 -1 -0 -0 -0 0 0 0 -0 -0 0 0 1 1 1 1 1 2 2 2 2
-2 -3 -4 -3 -2 -3 -3 -4 -4 -4 -4 -5 -4 -4 -4 -3 -2 -2 -2 -2 -1 -1 -1 -1 -1 -1 -0 -0 -0 0 -1 0 0 0 2 2 1 1 1 2 2 2 3 3
-3 -3 -3 -2 -1 -2 -2 -3 -4 -4 -4 -4 -4 -3 -4 -3 -2 -2 -2 -2 -1 -1 -1 -1 -1 -1 -1 -0 -0 0 0 1 0 -0 2 2 2 2 2 2 2 2 2 2
-4 -3 -5 -1 -1 -2 -2 -2 -3 -3 -3 -3 -4 -4 -4 -3 -3 -3 -2 -2 -2 -2 -1 -1 -1 -1 -2 -1 -1 -1 -0 0 0 0 0 0 2 2 2 2 2 2 2 1
-6 -5 -1 -0 -0 -1 -2 -1 -2 -3 -3 -3 -3 -3 -3 -3 -3 -3 -3 -3 -3 -2 -2 -1 -1 -1 -1 -1 -0 0 0 -0 0 1 1 1 1 2 2 2 1 1 1 1
-6 -5 -7 -0 -1 -1 -1 -1 -1 -2 -2 -2 -2 -2 -2 -2 -2 -3 -3 -2 -2 -2 -2 -1 -1 -1 -1 -0 -0 1 1 1 0 0 1 1 1 1 2 2 2 2 2 2
-6 -6 -2 -0 -1 -1 -1 -1 -1 -1 -2 -2 -1 -2 -2 -2 -2 -2 -2 -2 -2 -2 -1 -1 -1 -1 -1 0 1 1 1 1 1 1 1 1 1 2 2 3 2 2 2 2
-5 -6 -4 -0 -0 -1 -1 -1 -1 -1 -1 -1 -1 -1 -1 -2 -2 -2 -2 -2 -2 -2 -1 -1 -1 -1 -0 -0 1 1 1 1 1 1 2 2 2 2 2 2 2 2 2 1
-2 1 1 0 -0 -1 -1 -1 -1 -1 -1 -1 -1 -1 -2 -2 -2 -2 -2 -2 -2 -1 -1 -1 -1 -0 0 0 0 0 0 0 1 1 1 1 1 1 1 1 1 2 1 1
-2 1 0 -0 -0 0 -1 -0 -0 -1 -1 -1 -1 -1 -2 -2 -2 -2 -2 -2 -2 -2 -2 -2 -1 -1 -0 0 1 1 2 2 2 2 2 2 2 2 2 2 1 1 1 0
-1 1 0 1 1 1 0 1 0 -0 -1 -1 -1 -1 -2 -2 -2 -2 -2 -2 -2 -2 -1 -1 -0 0 1 1 1 1 1 2 2 2 1 1 2 2 2 2 1 1 0 0
-0 -1 -1 0 1 1 0 0 1 1 0 -0 -1 -2 -2 -2 -2 -2 -2 -2 -1 -1 -0 0 0 0 1 1 1 2 2 2 2 2 2 2 1 1 0 -0 -0 -0 -0 0
-0 -0 -1 -1 -0 -1 -0 -1 -0 0 0 -0 -1 -1 -1 -2 -1 -1 -1 -1 -1 -1 -1 -1 -0 0 0 1 1 1 1 1 1 1 1 1 1 1 0 -1 -1 -2 -2 -3
-1 -1 0 -0 -0 -1 0 0 0 -0 -0 -0 -0 -0 -1 -1 -1 -1 -1 -1 -1 -1 -1 -1 -1 -0 -0 -0 0 0 0 0 -0 -0 -1 -1 -1 -2 -3 -3 -3 -5 -6 -6
-0 -0 0 1 0 -1 -1 -1 0 0 -1 -1 -1 -0 0 -0 -0 -0 -1 -1 -1 -1 -2 -1 -1 -1 -1 -0 -0 -0 -1 -1 -2 -2 -2 -2 -3 -3 -5 -6 -6 -6 -7 -7
1 0 -0 -0 -0 -0 0 0 0 1 -0 -1 -1 -1 -1 -0 -0 -1 -1 -1 -2 -2 -2 -1 -1 -1 -1 -1 -1 -1 -1 -3 -3 -3 -3 -4 -5 -6 -6 -7 -7 -7 -7 -7
0 -0 -1 -1 -1 -0 1 0 1 0 -0 -1 -1 -1 -1 -1 -1 -1 -1 -2 -2 -2 -2 -2 -2 -2 -2 -2 -3 -3 -4 -4 -4 -4 -5 -6 -7 -7 -7 -7 -7 -8 -8 -8
-1 -1 -0 -0 -0 -0 -0 -0 -0 0 -0 -1 -2 -1 -1 -1 -2 -2 -2 -2 -2 -2 -2 -2 -2 -3 -3 -3 -3 -4 -5 -5 -5 -5 -7 -8 -8 -8 -8 -8 -8 -8 -9 -9
-2 -2 -2 -2 -1 -1 -0 -0 -0 -1 -1 -2 -2 -2 -2 -2 -2 -2 -2 -2 -3 -3 -3 -3 -3 -3 -4 -3 -4 -5 -5 -6 -6 -7 -8 -8 -9 -9 -9 -9 -9 -9 -9 -9
-3 -3 -3 -3 -2 -2 -1 -1 -1 -1 -1 -2 -3 -2 -3 -3 -3 -2 -3 -3 -3 -4 -3 -4 -4 -4 -4 -4 -5 -6 -6 -7 -7 -8 -8 -9 -9 -9 -9 -10 -10 -10 -10 -10
-3 -3 -3 -3 -3 -2 -2 -2 -1 -2 -3 -2 -3 -3 -4 -4 -4 -4 -4 -4 -4 -4 -4 -4 -4 -4 -5 -5 -6 -6 -7 -8 -8 -8 -8 -9 -10 -10 -10 -10 -11 -11 -11 -11
-4 -4 -4 -4 -4 -3 -3 -3 -3 -3 -3 -3 -3 -4 -5 -5 -5 -5 -5 -5 -5 -5 -5 -5 -5 -5 -5 -6 -7 -8 -8 -8 -8 -9 -9 -9 -10 -10 -10 -11 -11 -11 -11 -11
-5 -5 -5 -6 -6 -5 -4 -4 -4 -3 -4 -5 -5 -5 -6 -6 -6 -6 -6 -5 -5 -5 -5 -5 -6 -6 -6 -7 -8 -9 -9 -9 -9 -9 -9 -10 -10 -11 -11 -11 -11 -11 -12 -12
-6 -7 -6 -7 -7 -6 -7 -6 -6 -5 -5 -6 -6 -7 -7 -7 -7 -6 -6 -6 -6 -6 -6 -6 -6 -7 -7 -8 -9 -10 -10 -9 -9 -10 -10 -10 -11 -11 -11 -11 -11 -12 -12 -12
-8 -8 -8 -8 -8 -7 -7 -7 -7 -7 -6 -7 -7 -8 -8 -7 -7 -7 -7 -6 -6 -7 -7 -7 -8 -8 -9 -10 -10 -10 -10 -10 -10 -10 -10 -11 -11 -12 -12 -12 -12 -12 -12 -12
-10 -10 -9 -9 -9 -8 -8 -7 -7 -7 -7 -7 -8 -8 -8 -8 -8 -8 -7 -7 -7 -8 -8 -8 -9 -9 -10 -10 -10 -10 -10 -10 -10 -11 -11 -11 -12 -12 -12 -12 -12 -13 -13 -13
-10 -10 -10 -9 -9 -9 -9 -8 -8 -8 -8 -9 -8 -8 -8 -9 -9 -8 -8 -8 -9 -9 -9 -9 -9 -10 -10 -10 -11 -11 -11 -11 -11 -11 -11 -12 -13 -13 -13 -13 -13 -13 -13 -14
Height
3061 3057 3056 3053 3049 3048 3045 3044 3041 3034 3025 3018 3010 3003 2992 2984 2974 2968 2961 2957 2952 2949 2946 2946 2946 2946 2947 2948 2951 2953 2955 2958 2959 2960 2962 2964 2968 2971 2975 2979 2983 2990 2999 3004
3055 3054 3053 3049 3046 3045 3042 3041 3039 3035 3028 3022 3015 3009 3000 2992 2984 2977 2972 2968 2964 2960 2958 2956 2957 2956 2955 2955 2955 2956 2955 2960 2959 2959 2956 2960 2964 2969 2974 2979 2986 2991 2998 3005
3054 3052 3048 3047 3044 3043 3040 3040 3039 3036 3030 3025 3020 3014 3006 3000 2993 2988 2983 2980 2975 2972 2969 2969 2968 2966 2964 2964 2963 2963 2962 2961 2961 2960 2957 2961 2965 2968 2975 2980 2986 2993 2998 3003
3055 3051 3050 3044 3041 3040 3038 3037 3036 3034 3030 3026 3023 3020 3013 3008 3003 2998 2993 2989 2986 2983 2982 2980 2979 2979 2978 2976 2974 2970 2968 2967 2966 2965 2964 2967 2968 2971 2977 2982 2987 2993 2999 3003
3057 3054 3046 3041 3040 3039 3037 3037 3034 3032 3029 3027 3024 3021 3018 3010 3006 3003 3000 2998 2996 2993 2990 2989 2987 2985 2985 2984 2982 2980 2977 2976 2975 2975 2975 2975 2978 2978 2981 2987 2989 2994 2999 3003
3057 3056 3048 3040 3039 3039 3037 3035 3032 3030 3028 3026 3025 3022 3020 3014 3010 3007 3004 3002 3000 2998 2996 2995 2992 2990 2990 2988 2987 2985 2983 2981 2981 2983 2984 2984 2986 2988 2990 2993 2995 2998 3002 3004
3053 3052 3041 3039 3038 3038 3038 3040 3033 3031 3028 3027 3025 3023 3020 3017 3014 3011 3008 3006 3003 3002 3000 2998 2995 2993 2992 2990 2990 2988 2987 2986 2986 2986 2987 2988 2989 2989 2991 2993 2995 2997 3000 3002
3045 3045 3040 3037 3037 3037 3037 3033 3031 3029 3028 3025 3024 3023 3021 3017 3014 3011 3009 3007 3005 3003 3000 2998 2996 2995 2993 2992 2990 2989 2989 2988 2988 2988 2988 2988 2989 2990 2991 2992 2993 2994 2995 2997
3042 3035 3032 3032 3032 3030 3030 3029 3029 3028 3026 3024 3024 3022 3021 3019 3016 3013 3010 3008 3006 3004 3002 2999 2997 2995 2993 2992 2990 2988 2987 2986 2986 2985 2985 2985 2985 2986 2987 2988 2989 2990 2990 2992
3037 3031 3029 3028 3027 3026 3025 3025 3025 3024 3023 3022 3021 3020 3020 3019 3017 3015 3012 3010 3007 3004 3001 2999 2997 2994 2992 2990 2989 2987 2986 2985 2984 2983 2982 2982 2981 2981 2982 2982 2982 2982 2982 2982
3028 3027 3025 3023 3021 3021 3021 3020 3020 3020 3019 3019 3018 3018 3017 3016 3015 3013 3012 3010 3007 3004 3002 2999 2997 2995 2993 2991 2990 2988 2987 2984 2982 2981 2980 2978 2976 2974 2973 2972 2972 2971 2971 2969
3022 3023 3021 3020 3019 3018 3017 3017 3016 3015 3015 3015 3015 3014 3013 3012 3012 3011 3009 3007 3005 3003 3002 3000 2998 2997 2996 2994 2991 2988 2986 2984 2982 2980 2978 2976 2974 2971 2968 2964 2961 2959 2956 2955
3019 3018 3016 3014 3015 3014 3013 3013 3012 3012 3012 3011 3011 3010 3009 3009 3008 3006 3005 3005 3004 3003 3001 2999 2997 2995 2993 2991 2989 2986 2984 2981 2978 2976 2974 2973 2971 2968 2966 2964 2960 2957 2951 2947
3014 3010 3009 3011 3008 3007 3007 3007 3007 3007 3007 3007 3007 3006 3005 3005 3004 3004 3004 3003 3002 3000 2998 2996 2994 2992 2990 2988 2986 2983 2981 2979 2976 2973 2969 2965 2961 2959 2956 2954 2954 2950 2944 2941
3010 3008 3005 3004 3005 3004 3003 3002 3000 3002 3003 3002 3002 3002 3002 3001 3002 3001 3001 3000 2999 2997 2995 2994 2992 2989 2987 2985 2983 2981 2978 2975 2971 2966 2963 2959 2957 2955 2952 2948 2945 2942 2940 2936
3003 3002 3001 3000 3000 2999 2997 2996 2995 2995 2995 2997 2996 2997 2997 2998 2998 2997 2997 2996 2994 2993 2992 2990 2988 2986 2984 2982 2980 2976 2973 2969 2964 2960 2958 2955 2951 2948 2945 2939 2934 2930 2927 2925
2999 2998 2996 2994 2993 2991 2989 2988 2987 2989 2988 2989 2991 2991 2991 2992 2992 2992 2992 2990 2989 2988 2986 2984 2984 2982 2980 2977 2973 2970 2967 2964 2960 2957 2953 2949 2945 2938 2930 2927 2925 2922 2919 2916
2992 2990 2989 2986 2984 2984 2983 2980 2980 2980 2981 2982 2982 2984 2985 2986 2987 2987 2986 2986 2985 2984 2982 2981 2979 2978 2976 2974 2972 2969 2965 2961 2958 2954 2947 2939 2930 2927 2926 2923 2920 2917 2914 2911
2985 2984 2981 2979 2977 2975 2975 2973 2971 2972 2972 2973 2973 2975 2978 2979 2979 2980 2980 2980 2979 2978 2977 2976 2975 2973 2972 2969 2966 2963 2960 2956 2950 2943 2936 2931 2928 2926 2923 2920 2917 2913 2909 2906
2978 2976 2974 2973 2970 2967 2965 2964 2962 2961 2963 2963 2964 2966 2968 2970 2972 2973 2973 2974 2974 2974 2973 2972 2970 2968 2965 2963 2960 2956 2952 2946 2942 2936 2932 2930 2928 2924 2921 2917 2913 2909 2905 2901
2969 2967 2966 2964 2963 2960 2957 2954 2952 2952 2953 2953 2954 2958 2961 2962 2963 2964 2966 2967 2967 2967 2966 2965 2963 2961 2958 2956 2952 2949 2945 2941 2937 2933 2930 2927 2924 2920 2918 2914 2910 2907 2903 2898
2960 2958 2956 2954 2952 2951 2949 2946 2944 2943 2943 2945 2946 2947 2950 2953 2955 2957 2958 2960 2960 2960 2959 2958 2956 2955 2953 2949 2947 2944 2941 2937 2934 2930 2926 2924 2920 2917 2915 2912 2908 2904 2900 2895
2950 2950 2948 2945 2943 2941 2939 2937 2936 2933 2933 2934 2937 2938 2941 2945 2947 2948 2950 2952 2952 2952 2952 2951 2950 2949 2947 2944 2941 2938 2936 2933 2929 2925 2922 2919 2916 2913 2911 2908 2904 2901 2897 2893
2940 2938 2937 2935 2934 2931 2929 2927 2926 2924 2923 2924 2926 2929 2932 2935 2938 2941 2943 2944 2945 2945 2945 2945 2943 2942 2940 2938 2936 2934 2931 2928 2925 2922 2919 2916 2912 2909 2907 2903 2900 2897 2893 2890
2928 2926 2925 2923 2922 2921 2919 2919 2916 2914 2913 2914 2917 2919 2923 2926 2930 2932 2935 2936 2937 2938 2938 2938 2937 2936 2934 2932 2931 2929 2927 2924 2921 2918 2915 2911 2908 2905 2902 2900 2898 2894 2890 2887
2916 2914 2914 2913 2912 2912 2909 2908 2907 2906 2903 2904 2908 2912 2915 2918 2922 2924 2927 2929 2930 2931 2931 2931 2930 2929 2928 2927 2926 2925 2923 2920 2917 2913 2910 2907 2904 2901 2899 2896 2894 2890 2887 2884
2903 2902 2903 2902 2902 2901 2899 2898 2897 2897 2895 2897 2901 2903 2907 2910 2913 2916 2918 2920 2922 2923 2924 2924 2924 2923 2922 2921 2921 2919 2918 2915 2912 2909 2906 2904 2901 2898 2896 2893 2890 2887 2885 2882
Wind_Speed
19 19 10 14 16 11 11 10 8 20 25 31 32 36 36 38 41 44 48 45 31 34 25 25 22 21 13 7 11 9 12 16 12 13 16 19 24 19 15 14 14 24 28 36
19 4 9 20 9 8 8 8 11 13 19 23 28 30 34 36 37 39 43 45 40 38 35 37 33 26 28 17 22 14 12 17 16 10 16 17 21 26 15 22 22 23 25 24
5 14 15 3 7 5 7 7 9 8 12 16 20 26 31 32 32 33 33 34 38 38 39 36 34 30 31 28 27 25 23 27 16 7 29 19 14 24 25 23 18 23 19 22
10 13 3 4 10 9 10 8 5 7 11 15 14 14 16 21 25 28 29 31 29 29 29 30 28 29 30 27 22 24 25 28 26 26 19 18 24 15 15 17 22 25 16 18
5 10 15 3 4 8 11 8 7 6 8 11 13 11 12 18 21 23 24 25 25 24 23 21 20 21 19 19 19 19 22 24 23 21 20 22 19 22 24 15 12 11 12 12
5 4 4 5 9 10 11 2 10 9 9 11 10 11 11 13 15 17 19 18 19 19 19 17 18 18 15 15 12 11 14 16 17 16 16 14 13 13 12 8 6 7 13 15
15 9 10 9 8 8 4 6 12 10 12 10 11 12 11 11 12 13 15 15 16 14 14 14 15 14 13 14 11 12 13 13 11 10 9 7 7 6 4 4 5 8 12 15
6 8 6 2 5 5 10 13 14 12 11 13 12 12 12 13 14 14 14 15 14 15 15 15 16 15 14 14 14 13 12 11 9 7 6 5 5 5 5 7 9 11 13 15
9 8 18 20 21 19 17 18 15 13 13 13 12 12 13 13 13 14 13 13 13 14 14 15 15 15 15 15 15 16 16 16 16 15 15 13 13 12 12 13 15 18 20 23
23 6 14 19 21 21 17 18 18 14 13 14 14 13 14 13 11 9 9 10 12 14 16 17 18 19 19 19 19 19 19 19 19 19 19 19 19 19 19 20 22 24 25 27
32 15 13 12 15 15 17 15 16 15 13 14 14 14 14 12 10 9 9 11 13 15 17 18 18 17 17 17 17 18 19 20 22 22 23 24 24 26 27 27 27 29 30 31
20 16 14 11 11 11 10 12 15 17 15 15 15 14 12 10 9 9 11 13 15 16 16 15 14 14 14 14 16 18 19 20 20 21 21 22 23 24 27 30 32 34 36 39
18 19 23 22 15 13 13 18 16 15 16 16 15 12 11 9 8 10 12 13 14 15 15 14 14 14 15 17 18 20 21 22 22 21 21 21 22 23 22 22 22 26 31 35
18 22 24 20 20 20 17 15 18 16 17 16 14 12 10 10 11 12 12 13 15 15 15 16 16 16 17 18 19 21 21 21 22 23 25 28 30 29 28 27 25 23 25 25
27 28 26 24 17 16 19 24 21 19 18 17 15 14 13 13 14 15 15 15 15 15 16 16 16 16 18 19 20 20 20 22 23 26 28 30 30 28 25 23 22 20 18 22
23 26 27 27 27 33 34 30 28 21 20 19 17 16 16 17 17 17 16 16 16 17 17 17 17 18 18 20 20 21 23 23 25 28 29 29 28 27 26 26 27 26 25 25
20 19 24 28 28 27 29 32 30 26 22 22 21 22 20 19 18 18 18 18 18 18 19 19 18 19 19 21 21 22 22 24 26 27 28 28 27 29 32 32 30 28 27 28
29 29 28 32 33 31 31 29 32 31 27 24 25 26 24 22 20 20 19 19 19 19 19 20 20 20 20 19 19 20 20 22 24 26 27 28 31 33 32 31 30 29 27 27
30 31 32 33 38 38 32 32 31 33 34 30 31 28 25 26 25 22 21 21 20 20 20 21 21 20 20 19 20 19 20 21 23 26 28 29 30 30 30 30 29 29 28 26
28 28 28 27 30 33 29 31 32 35 35 36 34 32 30 27 25 24 24 22 21 21 22 22 21 20 20 20 20 20 21 23 24 25 26 26 26 27 28 29 27 27 27 26
36 36 36 36 34 32 31 28 29 33 34 37 36 33 30 28 27 27 25 24 23 23 23 22 21 20 20 20 19 20 21 22 23 23 24 24 24 25 26 27 25 25 25 25
37 41 44 43 40 36 34 29 28 30 36 36 36 33 33 32 30 27 26 25 25 24 23 21 20 20 20 18 18 19 20 21 23 22 22 23 22 22 23 24 23 23 24 24
40 44 46 40 32 30 28 26 28 27 32 36 34 34 31 29 28 28 27 26 25 24 23 21 20 20 18 17 17 18 19 21 22 21 22 22 21 20 21 22 22 21 21 20
49 47 45 39 32 27 25 26 26 29 28 32 32 32 31 30 30 29 27 26 25 24 23 21 19 18 16 16 17 18 19 20 21 20 20 20 19 19 19 19 21 20 19 19
50 50 48 46 40 35 34 30 24 26 28 30 35 33 34 32 31 30 29 26 25 23 21 19 17 16 15 15 16 17 18 19 20 19 19 18 17 17 17 18 18 18 18 18
42 41 40 40 33 30 28 30 29 30 26 29 32 32 32 31 30 28 27 25 23 22 19 17 15 14 14 15 16 17 18 18 18 17 17 16 15 15 16 17 17 17 17 17
49 48 45 44 40 35 34 31 28 25 24 23 27 28 29 29 28 28 25 23 21 19 17 14 13 13 15 15 16 16 17 16 15 15 14 13 13 14 14 15 16 16 17 17
Wind_Direction
313 302 292 309 312 319 317 339 4 4 4 3 14 20 31 53 62 66 70 69 68 66 77 82 95 88 113 125 130 157 186 191 211 215 229 229 198 224 217 218 214 215 210 242
332 324 307 309 298 288 295 299 313 349 12 11 15 22 30 40 56 62 61 62 74 71 76 74 84 92 91 90 96 97 151 152 155 54 173 205 202 210 186 178 182 190 187 186
302 321 316 286 336 318 307 305 320 345 347 8 20 23 24 34 42 54 62 64 63 68 69 69 72 73 81 73 76 86 104 99 119 128 78 95 137 194 186 201 213 197 205 204
297 343 336 302 322 318 321 302 322 337 334 346 348 19 24 41 43 45 49 54 61 73 71 66 66 67 67 70 68 57 78 88 88 73 74 93 96 142 164 186 186 201 194 186
296 311 293 255 335 335 333 341 328 334 341 338 343 357 19 26 30 39 43 49 53 51 56 65 70 65 62 64 63 62 62 67 71 76 71 75 80 105 119 162 189 205 215 228
294 289 249 289 323 322 328 322 346 338 346 345 345 3 16 24 26 27 34 35 40 43 41 43 49 55 51 53 49 57 63 62 65 69 75 79 79 91 111 140 144 177 203 211
254 254 271 276 305 309 322 321 336 326 324 333 342 345 354 6 21 20 23 23 24 29 31 33 35 34 30 33 22 34 41 47 44 43 45 51 62 72 96 147 179 210 225 233
208 224 279 239 308 297 311 316 317 319 315 317 326 329 337 346 351 0 2 1 5 8 11 17 18 18 16 15 14 14 14 16 10 2 357 344 324 307 285 273 268 268 265 257
244 263 285 290 291 293 297 287 290 297 300 304 311 316 320 325 333 346 349 357 6 11 13 13 11 8 9 5 6 5 3 3 360 354 350 342 330 319 306 289 275 269 264 264
284 298 293 292 284 292 296 290 277 275 287 295 300 306 307 309 320 337 353 359 3 4 4 2 2 2 1 1 360 358 354 349 343 340 335 329 324 316 305 298 294 289 285 279
284 310 301 312 291 270 271 293 282 274 271 280 287 287 290 299 318 334 344 352 357 356 354 353 352 353 353 355 352 347 345 344 341 339 335 333 329 321 316 313 308 303 297 292
296 281 283 296 310 289 275 287 280 271 273 270 268 270 277 291 308 325 339 343 344 343 341 341 340 340 341 342 344 343 340 337 335 332 329 327 325 320 320 319 313 307 304 301
296 282 276 275 285 280 281 263 266 267 260 259 260 261 266 281 306 323 323 323 323 324 325 326 331 334 337 338 339 339 339 336 332 330 330 327 325 323 320 312 304 300 305 307
312 296 286 289 283 265 268 269 261 255 250 255 260 264 271 286 293 293 297 303 308 313 319 322 324 328 332 334 335 334 332 332 332 333 338 342 340 338 334 328 318 310 307 308
285 288 293 284 276 291 291 269 267 266 260 252 256 263 271 272 276 281 286 292 299 305 311 312 317 324 327 327 329 326 328 332 336 343 343 341 337 333 330 329 327 321 311 311
278 279 281 283 284 292 290 287 266 261 259 263 258 258 260 266 272 276 280 286 295 299 302 307 315 319 320 321 320 325 331 337 344 342 339 337 337 337 335 338 339 335 330 326
297 282 275 282 292 296 287 280 268 253 245 249 255 253 254 257 263 269 276 283 290 295 302 307 308 311 313 316 325 330 333 337 338 338 338 336 338 345 349 347 342 336 330 327
290 288 282 282 285 287 294 287 269 252 247 245 244 250 254 255 256 261 268 276 284 290 297 300 302 302 305 312 318 323 329 331 333 335 340 346 353 351 347 343 339 336 331 327
287 289 292 292 288 292 292 287 277 262 243 240 243 245 248 249 253 257 264 272 281 289 293 291 293 296 300 310 316 321 327 331 339 344 350 351 348 345 344 341 338 335 331 327
280 285 291 300 299 295 294 279 281 258 252 242 240 242 242 245 250 255 260 267 275 280 282 284 288 294 302 310 316 324 332 340 343 345 346 342 341 342 342 342 341 340 336 332
279 284 286 289 292 299 300 294 284 264 250 246 241 242 245 245 245 248 254 260 268 274 277 281 286 294 301 310 320 327 333 336 341 341 340 338 337 339 341 343 343 343 340 338
281 288 293 298 299 294 291 293 290 274 255 250 244 239 240 243 245 247 250 257 265 272 276 280 285 291 298 310 318 323 327 331 335 336 336 334 334 334 333 336 342 343 341 342
282 286 290 295 294 288 277 287 289 282 266 251 248 242 240 244 245 245 249 255 263 269 272 275 280 286 297 309 316 320 322 325 333 334 332 330 332 329 326 331 333 338 341 341
288 289 288 285 282 280 290 277 283 279 266 252 242 237 236 238 242 245 250 253 259 263 265 268 275 284 297 308 312 314 317 322 329 330 328 327 329 328 325 331 332 334 338 337
283 285 284 288 288 281 284 289 291 285 263 249 241 234 234 236 238 240 244 250 255 258 260 265 273 284 295 303 305 308 311 318 324 325 326 326 330 331 332 331 332 339 341 342
277 277 279 279 285 285 282 286 289 293 266 246 239 238 238 238 239 241 246 250 252 253 257 265 274 284 293 299 302 304 308 314 321 324 326 329 331 335 335 335 337 341 343 346
274 273 277 283 283 283 281 282 277 278 266 243 235 234 235 236 238 242 243 244 245 249 256 264 275 287 291 295 296 299 305 311 318 323 330 333 337 340 339 340 345 346 346 347